Murray, KY

10:08 AM CST on December 15, 2017 (GMT -0600)
Kyle-Oakley

Weather History for KCEY - February, 2012

Change the Weather History Date:

Tuesday, February 21, 2012

  Actual Average (KPAH) Record (KPAH)
Temperature  
Mean Temperature 50 °F -  
Max Temperature 55 °F 54 °F 71 °F (1983)
Min Temperature 44 °F 32 °F 1 °F (1963)
Degree Days  
Heating Degree Days 16    
Moisture  
Dew Point 37 °F    
Average Humidity 63    
Maximum Humidity 81    
Minimum Humidity 50    
Precipitation  
Precipitation 0.06 in - - ()
Sea Level Pressure  
Sea Level Pressure 29.95 in    
Wind  
Wind Speed 16 mph (SSW)    
Max Wind Speed 28 mph    
Max Gust Speed 34 mph    
Visibility 10 miles    
Events      
Averages and records for this station are not official NWS values.
T = Trace of Precipitation, MM = Missing Value Source: NWS Daily Summary

Daily Weather History Graph

Daily Weather History Graph

Search for Another Location

Airport or City:

Trip Planner

Search our weather history database for the weather conditions in past years. The results will help you decide how hot, cold, wet, or windy it might be!

Date:

Astronomy

Feb. 21, 2012 Rise Set
Actual Time 6:35 AM CST 5:39 PM CST
Civil Twilight 6:08 AM CST 6:05 PM CST
Nautical Twilight 5:38 AM CST 6:36 PM CST
Astronomical Twilight 5:08 AM CST 7:06 PM CST
Moon 6:04 AM CST (2/21) 5:44 PM CST (2/21)
Length of Visible Light 11h 57m
Length of Day
11h 04m
Waning Crescent, 0% of the Moon is Illuminated
Feb 21
Waning Crescent
Feb 21
New
Feb 29
First Quarter
Mar 8
Full
Mar 14
Last Quarter

Hourly Weather History & Observations

Time (CST) Temp. Windchill Dew Point Humidity Pressure Visibility Wind Dir Wind Speed Gust Speed Precip Events Conditions
12:15 AM 46.4 °F 40.1 °F 28.4 °F 50% 29.95 in 10.0 mi SSE 15.0 mph 23.0 mph N/A   Overcast
12:35 AM 46.4 °F 40.1 °F 28.4 °F 50% 29.93 in 10.0 mi SSE 15.0 mph 21.9 mph N/A   Mostly Cloudy
12:55 AM 46.4 °F 39.8 °F 30.2 °F 53% 29.92 in 10.0 mi SSE 16.1 mph 27.6 mph N/A   Mostly Cloudy
1:15 AM 48.2 °F - 30.2 °F 50% 29.89 in 10.0 mi SSE 18.4 mph 27.6 mph N/A   Mostly Cloudy
1:35 AM 48.2 °F - 33.8 °F 58% 29.91 in 5.0 mi South 15.0 mph 21.9 mph N/A   Overcast
1:55 AM 46.4 °F 40.7 °F 37.4 °F 71% 29.95 in 7.0 mi SSW 12.7 mph 23.0 mph 0.04 in   Overcast
2:15 AM 44.6 °F 37.4 °F 37.4 °F 76% 29.90 in 5.0 mi SSE 16.1 mph 23.0 mph 0.01 in   Overcast
2:35 AM 44.6 °F 37.2 °F 37.4 °F 76% 29.86 in 10.0 mi SSE 17.3 mph 25.3 mph 0.02 in   Overcast
2:55 AM 44.6 °F 37.4 °F 37.4 °F 76% 29.86 in 10.0 mi South 16.1 mph 25.3 mph 0.02 in   Scattered Clouds
3:15 AM 44.6 °F 37.2 °F 39.2 °F 81% 29.86 in 10.0 mi South 17.3 mph 24.2 mph N/A   Clear
3:55 AM 44.6 °F 37.8 °F 39.2 °F 81% 29.86 in 10.0 mi South 15.0 mph 27.6 mph N/A   Mostly Cloudy
4:15 AM 44.6 °F 38.1 °F 39.2 °F 81% 29.87 in 10.0 mi South 13.8 mph 25.3 mph N/A   Mostly Cloudy
4:35 AM 44.6 °F 37.8 °F 39.2 °F 81% 29.88 in 10.0 mi SSW 15.0 mph 21.9 mph N/A   Mostly Cloudy
4:55 AM 46.4 °F 40.1 °F 41.0 °F 81% 29.89 in 10.0 mi SSW 15.0 mph 23.0 mph N/A   Overcast
5:15 AM 46.4 °F 38.7 °F 41.0 °F 81% 29.90 in 10.0 mi SSW 20.7 mph 32.2 mph N/A   Overcast
5:35 AM 46.4 °F 39.0 °F 41.0 °F 81% 29.91 in 10.0 mi SSW 19.6 mph 33.4 mph N/A   Overcast
5:55 AM 46.4 °F 39.2 °F 41.0 °F 81% 29.92 in 10.0 mi SSW 18.4 mph 34.5 mph N/A   Overcast
6:15 AM 46.4 °F 37.5 °F 39.2 °F 76% 29.93 in 10.0 mi SW 27.6 mph 33.4 mph N/A   Overcast
6:35 AM 46.4 °F 37.9 °F 37.4 °F 71% 29.94 in 10.0 mi SW 25.3 mph 34.5 mph N/A   Overcast
6:55 AM 46.4 °F 38.3 °F 37.4 °F 71% 29.95 in 10.0 mi WSW 23.0 mph 28.8 mph N/A   Overcast
7:15 AM 46.4 °F 39.5 °F 37.4 °F 71% 29.95 in 10.0 mi SW 17.3 mph 33.4 mph N/A   Mostly Cloudy
7:35 AM 46.4 °F 39.5 °F 37.4 °F 71% 29.97 in 10.0 mi SW 17.3 mph 21.9 mph N/A   Mostly Cloudy
7:55 AM 46.4 °F 39.5 °F 37.4 °F 71% 29.97 in 10.0 mi SW 17.3 mph 24.2 mph N/A   Mostly Cloudy
8:15 AM 46.4 °F 39.8 °F 37.4 °F 71% 29.98 in 10.0 mi SW 16.1 mph 25.3 mph N/A   Mostly Cloudy
8:35 AM 48.2 °F - 37.4 °F 66% 29.98 in 10.0 mi SW 17.3 mph 29.9 mph N/A   Partly Cloudy
8:55 AM 48.2 °F - 35.6 °F 62% 29.99 in 10.0 mi SW 16.1 mph 27.6 mph N/A   Partly Cloudy
9:15 AM 48.2 °F - 35.6 °F 62% 29.99 in 10.0 mi SW 18.4 mph 27.6 mph N/A   Mostly Cloudy
9:35 AM 48.2 °F - 35.6 °F 62% 30.00 in 10.0 mi WSW 19.6 mph 27.6 mph N/A   Mostly Cloudy
9:55 AM 48.2 °F - 35.6 °F 62% 30.00 in 10.0 mi SW 13.8 mph 23.0 mph N/A   Mostly Cloudy
10:15 AM 48.2 °F - 35.6 °F 62% 30.00 in 10.0 mi SW 19.6 mph 23.0 mph N/A   Overcast
10:35 AM 50.0 °F - 35.6 °F 58% 30.01 in 10.0 mi WSW 19.6 mph 26.5 mph N/A   Overcast
10:55 AM 50.0 °F - 35.6 °F 58% 30.01 in 10.0 mi SW 19.6 mph 27.6 mph N/A   Overcast
11:15 AM 51.8 °F - 35.6 °F 54% 30.01 in 10.0 mi SSW 19.6 mph 27.6 mph N/A   Overcast
11:35 AM 50.0 °F - 35.6 °F 58% 30.01 in 10.0 mi SW 19.6 mph 26.5 mph N/A   Overcast
11:55 AM 53.6 °F - 37.4 °F 54% 30.00 in 10.0 mi WSW 17.3 mph 25.3 mph N/A   Overcast
12:15 PM 53.6 °F - 37.4 °F 54% 29.99 in 10.0 mi WSW 18.4 mph 26.5 mph N/A   Mostly Cloudy
12:35 PM 53.6 °F - 37.4 °F 54% 29.98 in 10.0 mi WSW 17.3 mph 26.5 mph N/A   Mostly Cloudy
12:55 PM 53.6 °F - 37.4 °F 54% 29.97 in 10.0 mi WSW 21.9 mph 27.6 mph N/A   Mostly Cloudy
1:15 PM 53.6 °F - 37.4 °F 54% 29.96 in 10.0 mi WSW 15.0 mph 23.0 mph N/A   Scattered Clouds
1:35 PM 53.6 °F - 37.4 °F 54% 29.96 in 10.0 mi SSW 17.3 mph 24.2 mph N/A   Scattered Clouds
1:55 PM 55.4 °F - 37.4 °F 51% 29.96 in 10.0 mi SW 17.3 mph 25.3 mph N/A   Scattered Clouds
2:15 PM 55.4 °F - 37.4 °F 51% 29.95 in 10.0 mi SW 18.4 mph 21.9 mph N/A   Scattered Clouds
2:55 PM 55.4 °F - 37.4 °F 51% 29.94 in 10.0 mi SW 13.8 mph 20.7 mph N/A   Mostly Cloudy
3:15 PM 53.6 °F - 37.4 °F 54% 29.94 in 10.0 mi WSW 18.4 mph 24.2 mph N/A   Partly Cloudy
3:35 PM 55.4 °F - 37.4 °F 51% 29.94 in 10.0 mi SW 17.3 mph 23.0 mph N/A   Partly Cloudy
3:55 PM 53.6 °F - 37.4 °F 54% 29.94 in 10.0 mi WSW 17.3 mph 24.2 mph N/A   Clear
4:15 PM 53.6 °F - 37.4 °F 54% 29.95 in 10.0 mi SW 18.4 mph 21.9 mph N/A   Clear
4:35 PM 53.6 °F - 37.4 °F 54% 29.96 in 10.0 mi WSW 16.1 mph 21.9 mph N/A   Clear
4:55 PM 53.6 °F - 37.4 °F 54% 29.96 in 10.0 mi SW 11.5 mph - N/A   Clear
5:15 PM 51.8 °F - 37.4 °F 58% 29.96 in 10.0 mi SW 13.8 mph 18.4 mph N/A   Clear
5:55 PM 50.0 °F - 35.6 °F 58% 29.97 in 10.0 mi SW 10.4 mph - N/A   Clear
6:15 PM 48.2 °F - 35.6 °F 62% 29.97 in 10.0 mi SW 9.2 mph - N/A   Clear
6:35 PM 48.2 °F - 35.6 °F 62% 29.96 in 10.0 mi SSW 6.9 mph - N/A   Clear
7:15 PM 48.2 °F - 35.6 °F 62% 29.96 in 10.0 mi SSW 4.6 mph - N/A   Clear
7:55 PM 46.4 °F 43.5 °F 35.6 °F 66% 29.96 in 10.0 mi SSW 5.8 mph - N/A   Clear
8:15 PM 46.4 °F 43.5 °F 33.8 °F 62% 29.96 in 10.0 mi SSW 5.8 mph - N/A   Clear
8:35 PM 46.4 °F 43.5 °F 33.8 °F 62% 29.95 in 10.0 mi South 5.8 mph - N/A   Clear
8:55 PM 46.4 °F 42.9 °F 32.0 °F 57% 29.95 in 10.0 mi South 6.9 mph - N/A   Clear
9:15 PM 46.4 °F 43.5 °F 32.0 °F 57% 29.95 in 10.0 mi South 5.8 mph - N/A   Clear
9:35 PM 46.4 °F 42.9 °F 32.0 °F 57% 29.95 in 10.0 mi South 6.9 mph - N/A   Clear
9:55 PM 46.4 °F 42.9 °F 32.0 °F 57% 29.95 in 10.0 mi South 6.9 mph - N/A   Clear
10:15 PM 46.4 °F 42.9 °F 32.0 °F 57% 29.94 in 10.0 mi South 6.9 mph - N/A   Clear
10:35 PM 44.6 °F 40.7 °F 32.0 °F 61% 29.94 in 10.0 mi South 6.9 mph - N/A   Clear
10:55 PM 44.6 °F 40.7 °F 32.0 °F 61% 29.93 in 10.0 mi South 6.9 mph - N/A   Clear
11:15 PM 44.6 °F 40.7 °F 32.0 °F 61% 29.93 in 10.0 mi South 6.9 mph - N/A   Clear
11:35 PM 44.6 °F 40.2 °F 32.0 °F 61% 29.92 in 10.0 mi South 8.1 mph - N/A   Clear
11:55 PM 44.6 °F 40.7 °F 32.0 °F 61% 29.91 in 10.0 mi South 6.9 mph - N/A   Clear